TimeMDT,TemperatureF,Dew PointF,Humidity,Sea Level PressureIn,VisibilityMPH,Wind Direction,Wind SpeedMPH,Gust SpeedMPH,PrecipitationIn,Events,Conditions,WindDirDegrees,DateUTC
12:15 AM,30.2,23.0,75,30.15,10.0,East,4.6,-,N/A,,Clear,100,2013-10-20 06:15:00
12:35 AM,32.0,23.0,69,30.14,10.0,SSW,3.5,-,N/A,,Clear,210,2013-10-20 06:35:00
12:55 AM,28.4,23.0,80,30.14,10.0,Calm,Calm,-,N/A,,Clear,0,2013-10-20 06:55:00
1:15 AM,28.4,23.0,80,30.14,10.0,Calm,Calm,-,N/A,,Clear,0,2013-10-20 07:15:00
1:35 AM,28.4,23.0,80,30.14,10.0,Calm,Calm,-,N/A,,Clear,0,2013-10-20 07:35:00
1:55 AM,30.2,23.0,75,30.13,10.0,SE,4.6,-,N/A,,Clear,130,2013-10-20 07:55:00
2:15 AM,30.2,24.8,80,30.13,10.0,East,3.5,-,N/A,,Clear,100,2013-10-20 08:15:00
2:35 AM,30.2,23.0,75,30.13,10.0,East,3.5,-,N/A,,Clear,90,2013-10-20 08:35:00
2:55 AM,30.2,23.0,75,30.13,10.0,Calm,Calm,-,N/A,,Clear,0,2013-10-20 08:55:00
3:15 AM,26.6,23.0,86,30.13,10.0,Calm,Calm,-,N/A,,Clear,0,2013-10-20 09:15:00
3:35 AM,28.4,23.0,80,30.13,10.0,Calm,Calm,-,N/A,,Clear,0,2013-10-20 09:35:00
3:55 AM,28.4,23.0,80,30.12,10.0,Calm,Calm,-,N/A,,Clear,0,2013-10-20 09:55:00
4:15 AM,26.6,23.0,86,30.12,10.0,SSE,3.5,-,N/A,,Clear,150,2013-10-20 10:15:00
4:35 AM,26.6,21.2,80,30.11,10.0,Calm,Calm,-,N/A,,Clear,0,2013-10-20 10:35:00
4:55 AM,26.6,23.0,86,30.11,10.0,Calm,Calm,-,N/A,,Clear,0,2013-10-20 10:55:00
5:15 AM,26.6,21.2,80,30.11,10.0,ESE,3.5,-,N/A,,Clear,120,2013-10-20 11:15:00
5:35 AM,28.4,23.0,80,30.10,10.0,Calm,Calm,-,N/A,,Clear,0,2013-10-20 11:35:00
5:55 AM,26.6,21.2,80,30.10,10.0,Calm,Calm,-,N/A,,Clear,0,2013-10-20 11:55:00
6:15 AM,26.6,21.2,80,30.10,10.0,Calm,Calm,-,N/A,,Clear,0,2013-10-20 12:15:00
6:35 AM,26.6,21.2,80,30.12,10.0,Calm,Calm,-,N/A,,Clear,0,2013-10-20 12:35:00
6:55 AM,26.6,23.0,86,30.11,10.0,West,3.5,-,N/A,,Clear,280,2013-10-20 12:55:00
7:15 AM,26.6,21.2,80,30.12,10.0,Calm,Calm,-,N/A,,Clear,0,2013-10-20 13:15:00
7:35 AM,28.4,23.0,80,30.11,10.0,Calm,Calm,-,N/A,,Clear,0,2013-10-20 13:35:00
7:55 AM,26.6,21.2,80,30.12,10.0,ESE,3.5,-,N/A,,Clear,110,2013-10-20 13:55:00
8:15 AM,26.6,21.2,80,30.11,10.0,Calm,Calm,-,N/A,,Clear,0,2013-10-20 14:15:00
8:35 AM,30.2,24.8,80,30.12,10.0,Calm,Calm,-,N/A,,Clear,0,2013-10-20 14:35:00
8:55 AM,32.0,26.6,80,30.12,10.0,Calm,Calm,-,N/A,,Clear,0,2013-10-20 14:55:00
9:15 AM,32.0,26.6,80,30.13,10.0,Calm,Calm,-,N/A,,Clear,0,2013-10-20 15:15:00
9:35 AM,33.8,28.4,81,30.13,10.0,Calm,Calm,-,N/A,,Clear,0,2013-10-20 15:35:00
9:55 AM,35.6,28.4,75,30.12,10.0,Calm,Calm,-,N/A,,Clear,0,2013-10-20 15:55:00
10:15 AM,35.6,30.2,81,30.12,10.0,Calm,Calm,-,N/A,,Clear,0,2013-10-20 16:15:00
10:35 AM,37.4,28.4,70,30.12,10.0,Calm,Calm,-,N/A,,Clear,0,2013-10-20 16:35:00
10:55 AM,41.0,26.6,57,30.12,10.0,Calm,Calm,-,N/A,,Clear,0,2013-10-20 16:55:00
11:15 AM,42.8,26.6,53,30.11,10.0,Calm,Calm,-,N/A,,Clear,0,2013-10-20 17:15:00
11:35 AM,44.6,24.8,46,30.10,10.0,Calm,Calm,-,N/A,,Clear,0,2013-10-20 17:35:00
11:55 AM,48.2,24.8,40,30.09,10.0,Calm,Calm,-,N/A,,Clear,0,2013-10-20 17:55:00
12:15 PM,50.0,26.6,40,30.09,10.0,Calm,Calm,-,N/A,,Clear,0,2013-10-20 18:15:00
12:35 PM,51.8,26.6,38,30.08,10.0,Calm,Calm,-,N/A,,Clear,0,2013-10-20 18:35:00
12:55 PM,53.6,26.6,35,30.07,10.0,Calm,Calm,-,N/A,,Clear,0,2013-10-20 18:55:00
1:15 PM,55.4,26.6,33,30.07,10.0,Calm,Calm,-,N/A,,Clear,0,2013-10-20 19:15:00
1:35 PM,57.2,24.8,29,30.05,10.0,Calm,Calm,-,N/A,,Clear,0,2013-10-20 19:35:00
1:55 PM,59.0,24.8,27,30.05,10.0,WNW,3.5,-,N/A,,Clear,290,2013-10-20 19:55:00
2:15 PM,59.0,24.8,27,30.04,10.0,Calm,Calm,-,N/A,,Clear,0,2013-10-20 20:15:00
2:35 PM,60.8,24.8,25,30.03,10.0,West,3.5,-,N/A,,Clear,270,2013-10-20 20:35:00
2:55 PM,60.8,26.6,27,30.02,10.0,WSW,10.4,-,N/A,,Clear,240,2013-10-20 20:55:00
3:15 PM,60.8,24.8,25,30.02,10.0,SW,9.2,-,N/A,,Clear,230,2013-10-20 21:15:00
3:35 PM,60.8,26.6,27,30.02,10.0,WSW,13.8,-,N/A,,Clear,240,2013-10-20 21:35:00
3:55 PM,60.8,24.8,25,30.03,10.0,SW,11.5,16.1,N/A,,Clear,230,2013-10-20 21:55:00
4:15 PM,60.8,23.0,23,30.02,10.0,SW,15.0,-,N/A,,Clear,230,2013-10-20 22:15:00
4:35 PM,59.0,24.8,27,30.03,10.0,SW,13.8,-,N/A,,Clear,220,2013-10-20 22:35:00
4:55 PM,60.8,23.0,23,30.03,10.0,SW,11.5,18.4,N/A,,Clear,230,2013-10-20 22:55:00
5:15 PM,59.0,23.0,25,30.04,10.0,WSW,6.9,-,N/A,,Clear,250,2013-10-20 23:15:00
5:35 PM,59.0,21.2,23,30.04,10.0,WNW,5.8,-,N/A,,Clear,300,2013-10-20 23:35:00
5:55 PM,55.4,21.2,26,30.04,10.0,NW,9.2,-,N/A,,Clear,320,2013-10-20 23:55:00
6:15 PM,53.6,23.0,30,30.05,10.0,WNW,3.5,-,N/A,,Clear,300,2013-10-21 00:15:00
6:35 PM,50.0,23.0,35,30.05,10.0,WSW,6.9,-,N/A,,Clear,250,2013-10-21 00:35:00
6:55 PM,50.0,21.2,32,30.06,10.0,Calm,Calm,-,N/A,,Clear,0,2013-10-21 00:55:00
7:15 PM,51.8,21.2,30,30.07,10.0,Calm,Calm,-,N/A,,Clear,0,2013-10-21 01:15:00
7:35 PM,50.0,21.2,32,30.08,10.0,NNE,8.1,-,N/A,,Clear,20,2013-10-21 01:35:00
7:55 PM,48.2,21.2,34,30.09,10.0,East,5.8,-,N/A,,Clear,80,2013-10-21 01:55:00
8:15 PM,37.4,26.6,65,30.09,10.0,ESE,8.1,-,N/A,,Clear,120,2013-10-21 02:15:00
8:35 PM,37.4,26.6,65,30.10,10.0,ESE,6.9,-,N/A,,Clear,110,2013-10-21 02:35:00
8:55 PM,37.4,24.8,60,30.10,10.0,ESE,9.2,-,N/A,,Clear,110,2013-10-21 02:55:00
9:15 PM,39.2,24.8,56,30.11,10.0,ESE,9.2,-,N/A,,Clear,110,2013-10-21 03:15:00
9:35 PM,37.4,24.8,60,30.12,10.0,Calm,Calm,-,N/A,,Clear,0,2013-10-21 03:35:00
9:55 PM,37.4,24.8,60,30.12,10.0,Calm,Calm,-,N/A,,Clear,0,2013-10-21 03:55:00
10:15 PM,33.8,24.8,70,30.13,10.0,Calm,Calm,-,N/A,,Clear,0,2013-10-21 04:15:00
10:35 PM,32.0,24.8,75,30.13,10.0,Calm,Calm,-,N/A,,Clear,0,2013-10-21 04:35:00
10:55 PM,32.0,24.8,75,30.14,10.0,Calm,Calm,-,N/A,,Clear,0,2013-10-21 04:55:00
11:15 PM,30.2,24.8,80,30.15,10.0,Calm,Calm,-,N/A,,Clear,0,2013-10-21 05:15:00
11:35 PM,32.0,24.8,75,30.15,10.0,Calm,Calm,-,N/A,,Clear,0,2013-10-21 05:35:00
11:55 PM,30.2,24.8,80,30.15,10.0,Calm,Calm,-,N/A,,Clear,0,2013-10-21 05:55:00